Location: Binion Cemetery
(33.4257°N, 96.4411°W)
Time: 22:35:46
(UTC+00:00)

Daily predictions for brighter satellites

Satellite Brightness Start Highest point End
(mag) Time Altitude Azimuth Time Altitude Azimuth Time Altitude Azimuth
Milstar 3 Cent rocket 3.7 12:01:50 14° WSW 12:05:38 32° SSW 12:12:45 10° SE
Cosmos 1933 3.4 12:06:36 10° NNW 12:10:26 50° W 12:14:15 10° S
ERS-2 1.5 12:08:18 10° NNE 12:11:13 85° ESE 12:14:07 10° SSW
Cosmos 1627 Rocket 4.5 12:05:41 10° N 12:12:02 73° W 12:18:19 10° S
SAR-Lupe-2 4.2 12:08:52 10° NNE 12:12:24 60° E 12:15:55 10° S
Cosmos 1862 3.4 12:09:32 10° SSW 12:13:14 47° W 12:16:58 10° N
Cosmos 2151 2.9 12:09:09 10° S 12:13:19 87° ESE 12:17:32 10° N
COSMO-SKYMED 1 2.8 12:09:15 10° S 12:13:24 46° W 12:17:36 10° NNW
Meteor 2-3 Rocket 4.3 12:08:36 10° SW 12:13:35 33° WNW 12:18:35 10° NNW
PSLV R/B 3.5 12:10:18 10° N 12:14:32 61° WNW 12:18:43 10° SSW
GENESIS II 4.0 12:18:49 10° SSW 12:22:38 81° WNW 12:26:30 10° NNE
USA 215 3.5 12:16:44 10° NNE 12:22:57 49° NW 12:29:11 10° WSW
Meteor 1-31 Rocket 4.4 12:20:13 10° NNE 12:23:47 38° E 12:27:19 10° SSE
SJ-7 4.4 12:22:17 10° NNE 12:26:23 90° NE 12:30:28 10° SSW
BlueWalker 3 2.2 12:25:35 14° WNW 12:28:41 50° SW 12:32:21 10° SSE
SKYMED 3 4.4 12:25:31 10° SSE 12:29:39 87° W 12:33:47 10° NNW
ATLAS 2A CENTAUR R/B 3.6 12:32:39 10° WSW 12:34:31 13° SSW 12:35:51 10° S
SMAP 3.4 12:32:22 10° NNE 12:37:02 72° ESE 12:41:39 10° S
Cosmos 1110 Rocket 4.0 12:32:34 10° NNW 12:37:51 69° WSW 12:43:04 10° S
Cosmos 1842 Rocket 3.7 12:34:10 10° N 12:38:37 81° E 12:43:04 10° S
BREEZE-M R/B 3.2 12:32:20 10° NW 12:39:08 76° SW 12:42:35 10° SE
Aureole 2 4.0 12:36:31 10° NNW 12:39:33 82° ENE 12:42:25 10° SSE
Cosmos 1782 4.3 12:39:24 10° NW 12:41:49 16° W 12:44:13 10° SW
Cosmos 1437 Rocket 3.1 12:38:23 10° SSW 12:41:52 38° W 12:45:19 10° N
H-2A R/B 3.6 12:40:25 10° NW 12:42:11 12° WNW 12:43:57 10° W
Helios 1B rocket 2.8 12:41:04 10° N 12:44:47 39° WNW 12:48:29 10° SW
CENTAUR R/B 4.4 12:37:13 10° NNW 12:45:14 42° NE 12:53:49 10° ESE
CZ-4B R/B 4.0 12:43:30 10° NNE 12:47:33 85° ESE 12:51:44 10° S
DELTA 2 DEB (DPAF) 4.0 12:44:35 10° S 12:48:53 81° WSW 12:53:10 10° NNW
Cosmos 1515 4.3 12:46:10 10° NNW 12:49:24 32° W 12:52:37 10° SSW
SL-16 R/B 2.7 23:36:17 10° NNW 23:41:55 66° WSW 23:47:29 10° S
APEX 3.7 23:49:07 10° SW 23:52:11 43° WNW 23:54:57 10° N
Cosmos 1943 3.6 23:47:17 10° N 23:52:35 40° ENE 23:57:51 10° SE
CZ-2D R/B 4.2 23:50:02 10° S 23:53:36 50° W 23:57:10 10° NNW
Cosmos-2242 3.0 23:49:18 10° S 23:53:38 86° E 23:57:58 10° N
